KC4LW Weather Reports


Display with metric or nautical units.
time (UTC)temp
F
wind
direction
speed
MPH
gust
MPH
rain 1hr
in
rain 24hr
in
rain mn
in
humidity
%
barometer
mb
20260905171554 89 294 1.0 3.0 0.00 0.00 0.00 79 1012.1
20260905170122 87 114 1.0 6.0 0.00 0.00 0.00 81 1012.4
20260905164559 87 352 1.0 4.0 0.00 0.00 0.00 85 1012.8
20260905163104 85 299 0.0 2.0 0.00 0.00 0.00 88 1013.1
20260905161603 85 0 0.0 4.0 0.00 0.00 0.00 89 1013.3
20260905160104 84 0 0.0 2.0 0.00 0.00 0.00 90 1013.6
20260905154615 84 274 2.0 5.0 0.00 0.00 0.00 88 1013.6
20260905153105 85 281 3.0 9.0 0.00 0.00 0.00 85 1013.8
20260905151624 87 306 2.0 10.0 0.00 0.00 0.00 84 1013.5
20260905150107 86 300 2.0 7.0 0.00 0.00 0.00 86 1013.5
20260905144606 85 223 3.0 10.0 0.00 0.00 0.00 86 1013.6
20260905143059 85 299 5.0 10.0 0.00 0.00 0.00 86 1013.6
20260905141604 86 237 2.0 7.0 0.00 0.00 0.00 86 1013.5
20260905140105 84 257 3.0 7.0 0.00 0.00 0.00 89 1013.8
20260905134605 83 242 2.0 6.0 0.00 0.00 0.00 91 1013.7
20260905133104 82 308 2.0 9.0 0.00 0.00 0.00 93 1013.6
20260905131606 81 0 2.0 7.0 0.00 0.00 0.00 95 1013.4
20260905130101 80 336 3.0 9.0 0.00 0.00 0.00 97 1013.7
20260905124603 79 236 2.0 8.0 0.00 0.00 0.00 99 1013.6
20260905123058 78 282 1.0 5.0 0.00 0.00 0.00 99 1013.4
20260905121605 77 270 1.0 4.0 0.00 0.00 0.00 99 1013.5
20260905114603 76 233 0.0 5.0 0.00 0.00 0.00 99 1013.0
20260905113059 76 250 2.0 5.0 0.00 0.00 0.00 99 1012.6
20260905111557 76 210 1.0 4.0 0.00 0.00 0.00 99 1012.7
20260905110112 76 267 0.0 4.0 0.00 0.00 0.00 99 1012.6
20260905104602 76 265 0.0 5.0 0.00 0.00 0.00 99 1012.3
20260905103058 76 269 2.0 5.0 0.00 0.00 0.00 99 1012.2
20260905101608 76 239 2.0 4.0 0.00 0.00 0.00 99 1012.0
20260905100104 76 209 0.0 3.0 0.00 0.00 0.00 99 1012.3
20260905094557 76 227 1.0 3.0 0.00 0.00 0.00 99 1012.3
20260905093116 76 231 0.0 3.0 0.00 0.00 0.00 99 1012.2
20260905091607 76 0 0.0 1.0 0.00 0.00 0.00 98 1012.2
20260905090103 76 215 0.0 2.0 0.00 0.00 0.00 98 1012.3
20260905084604 76 215 0.0 3.0 0.00 0.00 0.00 98 1012.2
20260905083104 76 240 1.0 4.0 0.00 0.00 0.00 98 1011.8
20260905081554 76 235 1.0 3.0 0.00 0.00 0.00 98 1011.9
20260905080104 76 298 1.0 3.0 0.00 0.00 0.00 98 1011.9
20260905074600 76 0 0.0 3.0 0.00 0.00 0.00 98 1012.0
20260905073058 76 238 0.0 5.0 0.00 0.00 0.00 98 1012.1
20260905071555 76 215 1.0 4.0 0.00 0.00 0.00 98 1012.3
20260905070111 75 0 0.0 4.0 0.00 0.00 0.00 97 1012.5
20260905064558 76 241 1.0 4.0 0.00 0.00 0.00 97 1012.6
20260905063100 76 214 1.0 4.0 0.00 0.00 0.00 97 1012.9
20260905061608 76 0 0.0 3.0 0.00 0.00 0.00 97 1012.9
20260905054558 76 279 2.0 5.0 0.00 0.00 0.00 96 1013.2
20260905053056 76 0 0.0 2.0 0.00 0.00 0.00 96 1013.3
20260905051602 76 235 0.0 1.0 0.00 0.00 0.00 96 1013.6
20260905050058 76 0 0.0 4.0 0.00 0.00 0.00 96 1013.7
20260905044622 76 0 1.0 3.0 0.00 0.00 0.00 95 1013.9
20260905043111 76 216 0.0 3.0 0.00 0.00 0.00 95 1013.7
20260905041601 77 0 0.0 5.0 0.00 0.00 0.00 95 1014.0
20260905040107 77 241 0.0 4.0 0.00 0.00 0.00 95 1014.0
20260905034613 77 220 1.0 5.0 0.00 0.00 0.00 95 1013.8
20260905033102 77 0 0.0 6.0 0.00 0.00 0.00 95 1013.7
20260905031605 77 206 0.0 4.0 0.00 0.00 0.00 94 1013.6
20260905030106 77 251 1.0 3.0 0.00 0.00 0.00 94 1014.0
20260905024603 77 234 1.0 4.0 0.00 0.00 0.00 94 1014.0
20260905023100 77 207 2.0 5.0 0.00 0.00 0.00 93 1014.2
20260905021555 77 196 2.0 7.0 0.00 0.00 0.00 93 1014.0
20260905020104 77 223 3.0 7.0 0.00 0.00 0.00 93 1014.1
20260905014605 77 215 1.0 9.0 0.00 0.00 0.00 92 1014.0
20260905013103 78 178 2.0 9.0 0.00 0.00 0.00 92 1014.1
20260905011559 80 180 4.0 9.0 0.00 0.00 0.00 92 1013.9
20260905010056 82 0 0.0 1.0 0.00 0.00 0.00 94 1013.7
20260905004631 82 0 0.0 2.0 0.00 0.00 0.00 94 1013.1
20260905003058 82 104 1.0 3.0 0.00 0.00 0.00 93 1013.4
20260905001558 82 0 0.0 2.0 0.00 0.00 0.00 93 1013.5
20260905000108 82 0 0.0 2.0 0.00 0.00 0.00 93 1013.5
20260904234602 83 0 0.0 2.0 0.00 0.00 0.00 92 1013.1
20260904233105 83 217 1.0 3.0 0.00 0.00 0.00 92 1013.4
20260904231608 83 263 0.0 5.0 0.00 0.00 0.00 92 1013.6
20260904230129 83 0 1.0 3.0 0.00 0.00 0.00 92 1013.3
20260904224603 83 103 0.0 6.0 0.00 0.00 0.00 93 1013.2
20260904223105 83 98 0.0 3.0 0.00 0.00 0.00 93 1013.3
20260904221559 83 0 2.0 8.0 0.00 0.00 0.00 93 1013.2
20260904220058 83 96 2.0 7.0 0.00 0.00 0.00 93 1013.1
20260904214606 83 83 2.0 7.0 0.00 0.00 0.00 93 1013.1
20260904213104 83 87 2.0 8.0 0.00 0.00 0.00 92 1013.2
20260904211606 84 78 3.0 9.0 0.00 0.00 0.00 91 1013.2
20260904210108 84 98 1.0 9.0 0.00 0.00 0.00 91 1013.2
20260904204602 84 126 1.0 9.0 0.00 0.00 0.00 90 1013.3
20260904203109 85 65 3.0 10.0 0.00 0.00 0.00 88 1013.0
20260904201610 86 78 3.0 12.0 0.00 0.00 0.00 88 1012.9
20260904200106 85 90 2.0 10.0 0.00 0.00 0.00 88 1013.9
20260904194607 85 106 3.0 9.0 0.00 0.00 0.00 89 1014.0
20260904193058 85 57 3.0 9.0 0.00 0.00 0.00 88 1013.9
20260904191604 85 91 3.0 9.0 0.00 0.00 0.00 88 1013.6
20260904190059 85 112 1.0 7.0 0.00 0.00 0.00 87 1013.8
20260904184610 86 71 2.0 12.0 0.00 0.00 0.00 87 1013.8
20260904183116 87 109 1.0 15.0 0.00 0.00 0.00 86 1014.2
20260904181602 87 69 4.0 11.0 0.00 0.00 0.00 85 1014.0
20260904174604 88 107 4.0 10.0 0.00 0.00 0.00 83 1014.3
20260904173104 87 62 4.0 9.0 0.00 0.00 0.00 83 1014.2